STARLINK-31027, 58720

Orbit data source: Space-Track

STARLINK-31027, 58720 is a payload satellite owned by SpaceX/Seattle (US) in LEO that was launched on Wed, 03 Jan 2024 UTC via an FALCON 9 launch vehicle from the Air Force Western Test Range (AFWTR). Payload-class satellites include a variety of spacecraft equipped with specific instruments for various scientific and technological missions. These include communications satellites like Starlink; space stations such as the ISS; scientific satellites like the Hubble; Earth observation satellites from companies like Planet Labs, Umbra, and HawkEye 360; GPS; miniature CubeSats for education and research; and military/defense satellites.

Loading next visibility...
Identifier
58720, 2024-002R
Orbit
LEO
Country
Flag of USUS
Related business
Manufacturer
SpaceX/Seattle
Mission
Partially operational Commercial Communications
Bus & Motor
STARLINK V2M, Unknown motor
Mass
730 kg wet, ~700 kg dry
Launch date (UTC)
2024-01-03 (2 years ago)
Launch vehicle
FALCON 9
Launch site
Air Force Western Test Range (AFWTR)
Object type
Payload
Rocket body
Debris
Shape & HBR
Box + 2 Pan, 17.7 m
Radar Cross Section
33.884 m², Large (>1 m²)

Expand to show TLE details & history
Last TLE update: 2 days ago

TLE from 2 days ago
0 STARLINK-31027
1 58720U 24002R   26170.94016599  .00085242  00000-0  64445-3 0  9996
2 58720  53.1418  88.0843 0005919 357.4252   2.6735 15.71713827138040
Epoch: 2026-06-19T22:33Z
TLE epoch observation values (Epoch: 2026-06-19T22:33:50.341Z)
Latitude
-0.00003°
Longitude
-158.53741°
Altitude
350.932 km
Speed
7.702 km/s
True Right ascension
05h 52m 20s
True Declination
0° 00' 00"
Sunlit
Object was in daylight at epoch
Visualization orbit readout
Latitude
Unknown
Longitude
Unknown
Altitude
Unknown
Speed
Unknown
Apparent Right ascension
Unknown
Apparent Declination
Unknown
Sunlit
N/A
Visualization observer readout
Local Sidereal Time
21:24:31
Azimuth
Unknown
Elevation
Unknown
Doppler factor
Unknown
Orbital elements
Apogee altitude
358.247 km
Perigee altitude
350.278 km
Semi-major axis
6,732.4 km
Eccentricity
0.00059
Inclination
53.1418°
RAAN
88.0843°
Arg. of periapsis
357.4252°
True anomaly
2.67667°
Mean anomaly
2.6735°
Eccentric anomaly
2.67508°
Mean motion
3.92906 °/min
Orbital period
91.63 mins
BSTAR
0.00064445
Loading maneuver chart data...
Computing Atmospheric mass density...
Loading historical data...
Loading historical data...
Loading historical data...
Loading historical data...
Loading historical data...
Loading historical data...
Loading historical data...

Documentation

Showing up to 5 results
|